Weather at Bingelela

Public forecast

Using degrees Celsius for public forecast. Weather courtesy of forecast.io.

Closest aviation weather report (METAR) to Bingelela

Report is more than 6 hours old.

Closest report is Bethlehem Airport, 59.4 nm (110.0 km) WNW. Retrieved 2020/12/01 02:31 UTC (18 hours ago):

FABM 010231Z 07002KT 9999 OVC012 13/12 Q1018

Closest aviation forecast (TAF) to Bingelela

Forecast is more than 12 hours old.

Closest forecast is Pietermaritzburg Airport, 79.4 nm (147.0 km) SE. Retrieved 2014/08/25 07:00 UTC (6 years ago):

TAF FAPM 250600Z 2507/2518 14005KT CAVOK BECMG 2509/2511 08005KT TX20/2511ZTN10/2518Z